Vorticity
nan nan nan nan nan nan nan nan nan nan nan nan nan nan nan nan nan nan nan nan nan nan nan nan nan nan nan nan nan nan nan nan nan nan nan nan nan nan nan nan nan nan nan nan nan nan nan nan nan nan nan nan nan nan nan nan nan nan nan nan nan nan nan nan nan nan nan nan nan nan nan nan nan nan nan nan nan nan nan nan nan nan nan nan nan nan nan nan nan nan nan nan nan nan nan nan nan nan nan nan nan nan nan
nan 5 5 5 4 4 4 4 4 4 4 4 4 4 4 4 4 4 4 4 4 4 4 4 4 4 3 3 4 3 3 3 3 3 4 4 4 4 4 4 4 3 3 3 4 5 11 14 11 8 8 9 9 8 6 4 5 5 6 5 4 4 1 -0 3 4 5 6 5 5 5 5 5 5 5 5 5 4 4 4 4 4 4 4 4 4 4 4 5 5 5 5 5 5 5 4 4 4 4 4 4 5 nan
nan 5 4 4 4 4 4 4 4 4 4 4 4 4 4 4 4 4 4 4 4 4 4 4 4 4 4 3 3 3 3 3 3 3 3 4 4 4 4 4 4 4 4 4 4 5 8 12 13 9 7 9 9 8 7 6 6 6 5 5 4 3 1 1 4 5 5 6 6 6 6 5 5 5 5 5 5 5 5 4 4 4 4 5 4 5 5 4 4 4 5 5 5 6 6 5 5 5 4 3 3 4 nan
nan 4 4 4 4 4 4 4 4 3 3 3 3 3 3 4 4 4 4 4 4 4 4 4 4 4 4 3 3 3 3 3 3 3 3 4 4 4 5 5 5 4 4 4 5 8 7 7 10 8 7 8 8 8 7 7 6 6 5 5 3 -1 -0 4 6 6 6 6 6 7 6 6 6 6 6 6 5 5 5 5 5 5 5 5 5 5 5 5 5 4 4 4 4 5 5 5 6 6 6 5 4 3 nan
nan 4 4 4 4 4 4 4 3 3 3 3 3 3 3 4 4 5 5 4 4 4 4 4 4 4 4 4 4 3 3 3 3 3 4 4 4 4 5 5 5 5 4 4 6 10 10 7 8 7 6 7 8 7 6 6 6 6 5 4 1 -3 0 6 7 7 6 6 7 7 6 6 6 6 6 6 5 5 5 6 6 6 6 6 6 6 6 6 5 5 5 5 4 4 5 5 5 5 6 6 5 5 nan
nan 4 4 4 4 4 4 3 3 3 3 3 3 3 4 4 5 5 5 4 4 3 3 3 3 3 3 4 3 3 3 3 3 3 3 4 4 4 5 5 5 5 4 4 6 10 12 11 9 5 5 6 7 7 6 5 5 5 5 3 -0 -2 1 6 7 8 7 7 7 7 6 6 6 6 6 6 5 5 5 5 6 6 6 6 6 6 6 6 6 6 5 5 5 5 5 4 4 4 6 7 7 7 nan
nan 4 4 4 4 4 3 3 3 4 4 4 4 4 5 5 5 5 4 3 3 3 3 3 3 3 3 3 3 3 3 3 3 3 3 3 3 3 4 5 5 5 5 4 6 9 12 12 8 6 6 6 6 6 6 5 5 6 6 1 -3 -1 4 7 8 8 8 8 8 7 6 6 6 6 6 6 6 6 5 5 5 6 6 6 6 6 6 6 6 6 6 5 6 6 6 6 5 4 4 4 6 7 nan
nan 4 4 4 4 3 3 3 3 3 3 4 4 5 6 6 6 5 3 3 3 3 4 3 3 3 3 3 3 3 3 2 2 2 2 2 2 3 3 4 4 4 4 4 5 6 11 13 8 6 6 7 6 6 7 6 6 5 5 1 -3 -2 3 6 8 9 9 8 7 7 6 6 6 6 6 6 7 6 6 6 6 6 6 6 6 6 6 6 6 6 6 6 6 6 6 6 6 5 5 5 5 5 nan
nan 3 3 3 3 3 3 3 3 3 3 3 4 5 6 6 6 4 3 3 3 4 4 4 3 3 3 3 3 3 2 2 2 1 1 1 2 2 2 3 4 4 4 4 4 5 10 13 9 7 7 8 7 7 7 7 6 6 5 2 -1 -1 2 5 8 9 8 8 7 6 6 6 6 6 6 7 7 7 7 7 7 6 6 6 6 6 6 6 6 6 6 6 6 6 6 6 6 6 6 5 5 5 nan
nan 3 3 3 3 3 3 3 3 3 3 3 3 4 5 5 5 4 4 3 3 4 4 4 4 3 3 3 3 2 2 2 1 1 1 1 1 1 2 2 3 3 3 3 3 4 10 13 9 7 8 7 7 7 8 7 6 6 5 1 -2 0 3 5 7 8 8 7 6 6 6 6 6 6 6 7 7 7 7 7 7 7 7 7 7 7 6 6 6 6 7 7 7 7 7 6 6 6 6 6 6 6 nan
nan 4 4 4 3 3 3 3 3 3 3 3 3 4 4 4 4 4 3 4 4 4 4 4 4 3 3 2 2 2 2 2 2 1 1 1 1 1 2 2 2 3 3 3 4 5 10 12 9 8 8 7 7 7 8 7 6 6 4 0 -2 -0 3 5 6 7 7 7 6 6 6 6 6 6 6 6 7 7 7 7 7 7 7 7 7 7 7 7 7 7 7 7 7 7 7 7 7 6 6 6 6 6 nan
nan 4 3 3 3 3 3 3 3 3 3 3 3 3 3 3 3 3 3 3 4 4 4 4 4 3 3 3 3 3 2 2 2 2 2 2 2 2 2 2 2 2 2 3 5 8 11 11 8 8 8 8 8 8 7 8 7 6 2 -0 -1 -0 2 4 5 6 7 7 7 7 6 6 6 6 6 6 7 7 7 7 7 7 7 7 7 8 7 7 7 7 7 7 7 7 7 7 7 7 6 6 6 6 nan
nan 4 2 2 2 3 3 3 3 3 3 3 3 3 3 3 3 3 3 3 3 3 3 3 3 4 4 3 3 3 3 3 3 3 3 2 2 2 2 2 2 2 3 4 8 11 11 9 7 7 8 8 7 7 7 7 7 6 0 -1 0 0 1 3 4 6 7 8 7 7 7 7 7 7 7 7 7 7 7 7 7 7 7 8 8 7 7 8 8 7 7 8 8 8 8 8 7 7 7 7 7 7 nan
nan 2 2 2 3 3 3 3 3 3 3 3 3 3 3 3 3 3 3 3 3 3 3 3 3 4 4 4 3 3 3 3 3 3 3 3 4 3 3 3 3 3 4 9 12 12 8 6 7 8 8 8 7 8 8 7 6 6 2 -0 0 0 1 2 4 5 7 8 8 8 7 7 7 7 7 7 7 7 7 7 7 7 8 8 8 8 8 8 8 8 8 8 8 8 8 8 8 8 7 7 7 7 nan
nan 2 3 3 4 3 3 3 3 3 3 3 3 3 3 3 3 3 3 3 2 2 2 3 3 4 4 4 4 4 4 5 5 5 5 5 5 5 5 4 4 4 7 12 12 9 6 6 7 8 8 7 7 8 8 8 6 5 3 1 0 0 1 2 3 5 8 9 8 8 8 7 7 7 7 7 7 7 8 7 7 7 8 8 8 8 8 8 7 7 8 8 8 8 8 7 7 8 8 7 8 8 nan
nan 3 3 4 4 4 3 3 3 3 3 3 3 2 2 2 3 3 3 2 2 2 2 2 3 3 4 4 4 5 8 9 8 8 7 7 7 7 7 6 5 7 12 10 8 7 6 7 7 7 7 7 7 8 8 7 6 6 4 1 0 0 1 1 3 5 7 8 9 8 8 7 7 7 7 7 8 8 8 7 7 7 7 8 8 9 8 8 7 7 7 7 8 8 7 7 7 8 8 7 8 8 nan
nan 4 3 4 5 4 4 3 3 3 3 3 3 2 2 2 2 2 3 3 2 2 2 2 3 3 4 4 5 8 12 12 12 12 11 10 9 10 10 10 10 10 11 8 7 7 7 7 7 7 7 7 7 8 8 7 7 7 5 1 0 0 0 1 3 5 7 8 9 8 8 7 7 7 8 8 8 8 8 8 8 8 8 8 9 9 9 8 8 8 7 8 8 8 8 8 8 8 8 8 8 7 nan
nan 5 5 5 5 5 4 4 4 4 3 3 2 2 2 2 2 3 3 3 3 2 2 3 3 3 4 5 7 11 11 10 11 12 13 12 12 13 15 16 15 12 7 7 7 7 7 7 7 7 7 7 7 8 8 7 8 7 6 2 1 -0 0 1 3 4 7 8 9 9 8 8 8 8 8 8 8 8 8 8 8 8 8 8 9 9 9 9 9 9 8 8 8 8 8 8 8 8 8 8 8 8 nan
nan 7 5 5 5 5 5 5 4 4 3 3 3 3 3 3 3 3 3 3 3 3 3 3 3 4 6 9 11 11 8 8 8 9 10 11 13 16 20 20 16 12 7 7 7 7 7 7 7 7 7 8 8 7 7 7 7 7 5 3 1 0 1 2 3 4 6 8 8 9 8 8 8 8 8 8 8 8 8 8 8 8 9 9 9 9 9 9 9 9 9 9 9 9 9 9 9 9 9 9 9 8 nan
nan 10 9 7 6 5 5 5 5 5 5 4 4 6 7 6 6 5 4 5 5 4 4 4 6 9 10 12 11 9 7 7 7 8 8 9 11 15 18 17 13 10 8 8 8 8 7 8 7 7 6 8 8 7 7 7 7 6 5 3 1 1 1 2 3 5 6 7 8 9 9 8 8 8 8 8 8 8 8 8 9 9 9 9 9 9 9 9 9 9 9 9 9 9 9 9 9 8 9 9 9 9 nan
nan 11 12 12 11 9 7 7 8 8 8 6 5 8 10 11 11 10 9 10 10 10 8 9 11 12 12 10 8 6 6 7 8 8 8 8 9 11 12 10 9 8 8 8 8 8 8 8 8 8 7 8 8 8 7 6 5 5 4 3 2 1 2 3 4 5 5 7 8 8 9 9 9 9 9 9 8 8 8 8 9 9 9 9 9 9 8 8 8 8 8 8 8 9 9 8 8 8 9 9 9 8 nan
nan 8 10 11 12 11 9 9 10 10 11 9 5 6 9 10 11 12 13 13 13 13 14 13 12 10 10 8 7 7 7 7 7 8 8 8 8 8 8 8 7 7 7 7 8 8 9 8 8 8 8 8 8 7 7 6 6 7 6 5 3 2 3 4 4 5 5 6 7 9 9 9 9 9 9 9 9 8 8 8 9 9 9 9 8 8 8 7 7 7 7 7 7 8 8 8 8 8 8 8 8 8 nan
nan 7 7 7 8 8 8 8 8 9 11 11 6 6 6 7 8 10 11 10 10 11 12 11 9 8 9 9 9 9 9 8 8 8 8 8 8 7 7 7 7 7 7 7 8 9 9 8 8 8 8 8 7 7 6 7 8 10 9 6 4 3 4 4 5 5 5 6 7 9 10 10 9 9 9 9 8 8 8 8 8 8 8 8 8 7 7 7 6 7 7 7 7 7 7 8 8 8 8 8 7 7 nan
nan 7 6 6 6 6 6 7 7 7 8 10 8 6 6 6 8 8 8 8 8 9 9 9 8 8 9 10 10 10 9 9 9 9 8 7 7 8 8 7 7 7 8 8 8 8 8 8 8 7 8 7 7 6 5 7 10 12 11 7 5 4 4 5 5 5 5 6 8 9 10 10 9 9 9 9 8 8 8 8 8 8 7 7 7 6 6 6 6 6 6 6 6 7 7 7 7 7 7 7 7 7 nan
nan 7 6 6 6 6 6 7 6 6 6 7 7 6 6 6 7 8 8 8 9 10 10 10 9 8 8 9 9 9 8 8 9 9 8 7 7 7 8 8 7 7 7 8 8 8 8 8 8 8 8 7 7 6 5 7 11 13 11 8 6 5 5 5 5 5 5 6 8 10 11 10 9 9 9 8 8 7 7 7 7 7 7 7 6 6 6 5 5 6 6 6 6 6 6 7 7 7 7 7 6 6 nan
nan 7 7 7 7 7 7 7 7 6 6 7 7 7 6 6 7 8 9 9 10 11 11 10 9 8 8 8 8 8 8 8 8 8 9 8 7 7 7 7 8 7 7 7 8 8 8 8 8 7 7 8 7 7 5 6 10 13 12 9 7 5 5 5 4 4 5 7 9 11 11 10 9 9 8 7 7 6 6 6 6 6 6 6 6 6 6 6 5 5 6 6 6 6 6 6 6 6 6 6 6 6 nan
nan 7 7 7 7 7 7 7 7 7 7 7 7 7 7 6 6 7 8 10 11 11 10 8 8 8 8 9 8 8 8 8 8 8 9 8 7 6 6 7 7 7 7 8 8 8 8 8 7 7 7 8 7 7 5 5 9 11 12 11 8 6 5 4 3 3 4 8 10 11 11 10 9 8 7 6 6 5 5 5 6 6 6 6 7 6 6 6 6 6 6 6 6 6 6 7 7 7 6 6 6 6 nan
nan 7 7 7 7 7 7 7 7 7 7 8 7 7 8 7 6 6 7 9 9 10 8 8 8 8 9 8 8 8 8 8 9 8 8 8 7 6 7 7 7 7 7 8 7 8 8 8 7 8 8 8 8 8 5 5 7 9 13 14 9 6 4 3 2 2 4 8 10 12 11 9 8 7 6 5 5 5 6 6 7 7 7 7 7 7 6 6 6 6 6 6 6 6 6 7 7 7 7 6 6 6 nan
nan 7 8 8 7 7 7 7 8 8 8 8 7 7 8 9 8 7 7 8 8 8 8 8 8 8 8 8 8 8 8 8 8 8 8 8 8 7 7 7 7 7 7 7 7 7 8 8 8 8 8 8 8 8 5 4 5 8 14 16 11 7 4 2 2 2 4 8 10 11 10 8 7 5 4 4 5 6 7 8 8 8 8 8 7 7 6 6 6 6 6 6 6 6 6 6 7 7 7 6 6 6 nan
nan 7 8 9 8 7 7 7 8 8 9 9 8 7 7 9 9 9 8 8 8 7 8 8 8 8 8 8 8 7 7 8 7 6 7 8 8 7 7 7 7 7 7 8 8 8 8 8 8 8 8 8 8 8 6 4 4 9 16 18 12 7 3 2 1 2 5 8 10 10 9 7 5 3 3 4 5 7 8 9 9 9 9 8 8 7 7 6 6 6 6 6 6 6 7 7 7 7 7 6 6 6 nan
nan 8 9 9 8 7 8 8 8 8 9 9 9 8 7 8 9 9 9 8 7 7 8 8 8 7 7 8 7 6 7 8 8 6 6 7 7 7 7 7 7 8 8 9 9 8 8 8 8 8 7 7 7 8 7 5 5 10 18 20 12 7 3 2 1 2 5 8 9 9 7 5 3 2 2 4 6 8 9 10 10 9 8 8 8 7 7 7 6 6 6 6 7 7 7 7 7 7 7 7 7 7 nan
nan 8 9 9 8 8 9 9 8 8 8 10 10 9 8 8 8 8 9 9 9 8 8 7 7 7 7 7 7 7 8 8 8 7 6 6 6 7 7 8 8 8 8 9 9 8 8 8 8 7 7 7 7 8 8 6 7 10 17 18 11 6 3 2 2 2 4 6 7 7 6 3 2 1 2 4 6 8 9 10 9 9 8 8 7 7 7 7 7 7 7 7 7 7 7 7 7 7 7 7 7 7 nan
nan 9 9 9 9 9 10 9 8 7 8 9 10 9 8 8 8 9 10 9 10 9 9 8 8 7 7 7 7 7 8 9 9 8 7 7 7 7 7 8 8 8 8 8 8 8 8 8 7 7 7 7 7 8 8 7 7 7 14 17 13 8 3 2 2 3 4 5 6 6 4 3 2 1 2 4 6 7 8 9 9 9 8 8 7 7 7 7 7 7 7 7 8 8 7 7 7 7 7 8 8 8 nan
nan 9 9 9 10 11 11 9 8 8 8 9 10 10 9 8 9 10 10 8 8 9 9 9 8 8 8 7 7 7 7 8 9 8 8 7 7 7 7 7 8 8 8 7 8 8 8 8 8 8 7 7 7 8 8 8 8 8 12 15 15 9 4 2 2 3 3 4 4 4 3 2 1 1 2 4 6 7 8 8 8 8 8 8 7 7 7 7 7 7 7 8 8 8 8 8 8 8 8 8 8 8 nan
nan 9 9 9 9 11 9 8 8 8 9 9 10 10 9 8 8 8 7 6 6 6 8 9 8 8 8 7 6 6 7 9 9 8 7 7 7 7 8 8 8 8 8 7 8 8 8 8 8 8 7 7 8 8 8 8 8 8 10 12 15 12 7 4 2 2 3 3 3 3 2 1 1 1 2 4 5 6 7 7 7 7 7 7 7 7 7 7 7 7 7 8 8 8 8 8 8 8 8 9 9 9 nan
nan 8 8 9 9 10 8 7 9 9 9 9 9 9 8 6 6 6 5 6 6 6 7 8 8 9 9 8 7 6 7 9 9 7 6 7 7 7 8 8 8 8 7 8 8 8 8 7 8 8 7 8 8 8 8 8 8 8 8 10 12 13 10 7 5 5 4 3 3 2 2 1 1 1 2 3 4 5 6 7 7 7 7 7 7 7 7 7 7 7 7 8 8 8 8 9 9 9 9 9 9 9 nan
nan 7 8 9 9 8 7 8 9 9 8 8 7 7 6 6 6 7 7 7 7 7 6 6 7 8 9 9 7 6 7 9 9 7 6 7 8 8 7 8 8 8 7 8 8 7 7 7 8 8 8 8 8 8 8 9 8 8 8 9 10 11 10 9 9 8 7 5 3 2 1 1 0 1 1 2 3 4 5 6 6 7 7 7 7 7 7 7 7 7 7 8 8 8 9 9 9 10 9 10 9 9 nan
nan 6 7 9 9 8 7 8 8 8 7 7 7 7 6 7 8 9 9 8 7 6 6 6 5 6 8 8 8 7 7 9 9 7 6 7 7 8 7 8 8 8 7 8 8 7 7 8 8 8 8 8 8 8 9 8 8 8 8 9 9 9 8 9 8 8 10 10 7 4 2 1 1 1 1 2 3 3 4 5 6 6 7 7 7 7 6 7 7 7 8 8 8 9 9 9 9 9 9 9 9 9 nan
nan 7 7 9 9 8 8 8 8 7 6 7 7 8 7 8 7 8 8 8 7 7 8 6 5 5 6 7 7 7 7 8 8 8 7 7 6 7 7 8 8 7 8 8 8 7 7 8 8 7 8 8 9 9 9 8 8 8 9 9 9 8 8 8 8 8 9 11 10 8 5 3 2 1 2 2 3 3 4 5 5 6 6 7 7 6 6 7 7 8 8 8 8 9 9 9 9 9 9 9 9 9 nan
nan 7 8 8 8 8 9 9 8 6 6 7 7 8 8 8 7 7 6 6 6 8 9 8 6 5 5 7 7 8 7 7 8 8 7 6 6 6 7 7 8 8 8 8 8 7 7 7 7 7 8 9 9 9 8 8 8 8 9 9 9 8 8 8 8 7 7 9 10 10 8 6 4 3 2 2 3 3 4 4 5 5 5 5 6 6 6 7 7 8 8 8 8 8 8 8 8 8 9 9 9 9 nan
nan 8 8 8 8 9 10 9 6 5 6 7 6 7 8 8 8 7 6 5 5 6 9 10 9 7 6 6 7 7 8 7 7 7 8 7 7 7 8 8 8 8 8 7 8 7 7 7 8 8 9 9 9 9 8 8 8 8 8 9 9 9 9 9 8 6 6 8 8 9 11 9 5 4 3 3 3 3 3 4 4 4 3 4 4 5 6 7 7 8 8 8 8 8 8 8 8 8 8 9 9 9 nan
nan 8 8 9 9 10 10 8 5 5 6 6 6 6 8 8 8 7 7 6 6 6 7 10 11 10 9 7 7 6 8 8 7 7 7 7 8 8 9 8 8 8 8 8 8 8 8 8 8 9 9 9 8 8 8 8 8 8 8 8 9 10 10 9 8 7 7 7 8 8 11 11 8 5 5 4 3 3 3 4 4 3 2 2 3 4 6 7 7 7 7 8 8 8 8 8 8 8 9 9 9 9 nan
nan 8 9 9 9 9 9 7 6 6 6 6 6 7 7 7 7 8 8 8 7 6 6 8 10 11 10 7 6 6 7 7 7 7 7 8 8 9 8 8 8 8 8 8 8 8 9 9 9 10 10 8 8 8 8 8 8 8 8 8 9 10 9 9 8 8 8 8 7 8 9 11 11 9 7 6 4 4 4 4 4 2 0 1 2 4 5 6 7 7 7 7 8 8 8 9 9 9 9 9 9 9 nan
nan 8 9 9 9 9 8 7 5 6 6 6 7 7 7 6 7 8 9 9 8 7 6 7 8 10 10 8 7 6 7 7 7 7 7 8 8 8 8 8 8 9 9 9 9 9 9 9 10 10 9 8 8 8 8 8 8 9 8 8 9 10 9 9 8 8 9 8 8 8 8 9 11 11 10 9 7 6 6 5 4 2 0 1 2 3 5 6 6 6 7 7 7 8 8 9 9 9 9 9 8 8 nan
nan 8 9 10 10 9 7 6 5 6 6 7 7 7 7 6 7 7 8 9 9 9 8 7 8 9 9 9 9 8 8 8 8 7 7 8 8 8 8 9 9 9 9 9 9 10 10 10 10 10 9 8 8 8 8 8 9 9 9 8 9 10 9 9 9 9 9 8 8 8 8 8 9 10 10 10 9 8 7 6 4 2 1 2 3 3 4 5 6 6 6 6 7 8 8 9 9 9 8 8 8 8 nan
nan 7 8 9 9 8 7 6 6 6 7 7 7 7 6 6 6 7 7 8 9 10 9 8 7 8 9 10 9 10 9 9 9 9 8 7 7 7 8 10 9 8 8 9 9 10 11 11 11 10 9 9 9 8 8 8 9 9 9 9 9 10 10 9 9 9 9 9 9 9 9 8 8 8 8 9 9 8 8 6 4 3 3 3 4 4 5 6 6 6 6 6 6 7 8 8 9 8 8 8 8 8 nan
nan 7 8 9 8 7 7 6 6 6 7 8 7 7 5 5 6 6 6 7 8 9 9 8 7 7 8 8 8 9 10 10 9 9 9 8 8 6 8 11 10 9 8 8 8 10 12 12 10 9 9 9 9 9 9 8 9 9 8 8 8 8 9 10 9 9 10 10 10 9 9 9 8 8 7 8 8 8 8 7 6 5 4 4 5 4 5 6 6 5 5 5 6 6 7 8 8 8 8 8 8 8 nan
nan 6 8 10 8 7 7 6 6 7 7 7 6 6 6 6 6 6 7 7 8 7 8 8 8 7 7 5 6 8 9 9 9 8 8 9 9 8 9 9 10 9 7 7 7 9 12 13 10 9 8 8 9 9 9 9 9 9 8 8 8 7 8 9 8 9 9 10 10 10 10 10 9 9 8 8 8 8 8 8 8 7 6 5 5 5 6 6 6 5 4 4 5 5 7 7 8 8 8 8 8 8 nan
nan 5 8 10 8 6 6 7 7 7 7 7 7 8 8 7 7 7 8 9 9 8 8 8 9 9 8 5 6 7 8 8 9 8 9 9 9 9 8 8 8 9 9 7 7 7 10 12 9 8 8 8 8 8 9 10 9 9 9 9 8 8 8 8 8 9 8 8 9 9 10 11 11 10 9 8 8 8 8 8 9 8 7 6 6 6 6 6 5 4 3 3 4 4 6 7 7 7 8 8 7 7 nan
nan 6 8 9 8 7 7 7 6 6 7 8 10 11 11 9 9 8 7 7 7 8 8 7 8 10 10 8 6 6 7 8 8 7 8 10 10 8 7 8 9 9 10 9 7 6 8 9 8 7 7 8 7 8 8 9 9 9 10 10 10 9 9 9 9 9 8 7 8 8 9 10 10 10 10 9 9 9 9 8 9 8 7 7 7 8 7 5 4 3 2 2 3 4 5 6 6 6 7 7 7 7 nan
nan 8 8 7 7 7 8 7 6 6 7 8 8 11 12 10 8 6 6 5 5 6 7 6 6 8 11 11 8 7 7 8 8 6 7 9 10 10 8 6 7 9 11 11 9 7 8 7 6 6 7 7 7 7 8 8 8 9 9 9 8 9 9 9 10 10 9 8 8 8 9 9 9 9 9 8 8 9 9 9 9 9 8 8 8 8 7 5 1 1 0 1 3 4 4 5 5 6 6 6 6 6 nan
nan 8 7 6 6 6 8 8 6 7 6 4 5 8 9 9 6 5 6 6 5 5 5 6 6 6 7 10 10 10 9 9 9 8 7 6 7 10 9 8 8 8 9 11 10 7 5 6 7 6 6 7 8 8 7 8 8 8 8 8 7 7 8 9 10 10 9 8 8 9 10 10 10 9 8 7 7 8 8 8 8 8 8 8 8 8 8 5 2 -2 -2 2 3 4 4 5 5 5 6 6 6 6 nan
nan 8 7 6 6 6 8 8 7 6 5 4 5 6 7 8 7 6 6 6 6 5 7 8 7 6 6 7 9 10 10 10 9 8 7 6 5 6 9 12 10 9 8 9 9 6 3 5 5 8 5 4 7 8 8 8 8 7 7 7 7 7 7 8 9 9 8 7 8 9 10 10 10 9 8 7 8 8 7 7 7 8 8 8 8 8 8 6 3 1 3 3 3 4 5 5 5 5 6 6 6 6 nan
nan 9 6 4 5 6 8 9 7 7 6 6 6 7 8 8 6 5 6 6 6 7 8 8 8 8 7 6 7 7 8 9 9 9 9 8 7 6 8 10 10 9 9 9 9 7 4 5 8 10 6 6 8 9 8 8 8 8 8 7 7 8 8 8 9 8 7 6 7 7 8 9 9 8 8 8 9 9 9 9 8 8 8 8 8 7 7 6 6 7 9 9 6 3 1 3 4 5 5 6 6 5 nan
nan 8 4 4 5 6 8 9 7 6 5 6 8 9 9 9 7 7 8 8 8 8 7 7 7 7 7 7 7 6 7 7 8 9 10 10 10 8 6 4 6 6 9 11 11 8 6 7 10 11 6 5 8 9 7 8 8 10 9 7 7 8 9 9 9 8 7 7 7 7 6 7 7 8 8 10 10 10 9 9 9 9 8 8 7 7 7 7 10 12 12 11 9 5 1 0 4 5 5 6 5 5 nan
nan 6 5 7 7 6 7 7 7 7 6 6 8 8 9 9 10 9 9 10 9 7 5 6 6 5 6 9 9 7 7 8 9 9 9 9 9 9 9 6 4 3 7 9 10 9 8 9 9 9 8 7 6 7 7 7 7 9 8 7 7 7 8 9 8 7 7 9 9 9 8 7 7 8 8 9 9 9 9 9 9 9 9 8 8 8 9 10 11 11 10 10 10 9 3 1 2 3 5 5 5 5 nan
nan 8 8 8 8 5 4 5 6 6 6 6 8 9 9 9 9 9 9 8 7 6 6 8 7 5 5 9 11 9 7 8 8 8 8 8 8 10 11 10 9 7 7 8 9 9 11 11 9 9 10 9 8 7 8 6 7 8 8 7 6 7 8 8 8 7 7 8 9 10 9 8 8 8 8 9 8 9 9 9 9 9 9 8 9 9 9 9 8 7 8 7 8 8 3 1 1 3 5 5 5 4 nan
nan 10 10 7 7 5 3 4 6 6 6 7 7 8 9 9 8 8 9 8 7 7 8 7 7 6 6 8 10 10 9 7 5 5 7 8 8 9 10 10 11 12 12 12 11 10 10 9 9 8 9 9 9 9 8 7 8 10 9 7 6 7 8 8 8 8 7 7 7 8 9 8 8 8 8 8 8 8 9 9 9 9 9 9 9 9 8 6 6 6 4 3 2 2 1 1 4 4 5 5 5 4 nan
nan 9 9 8 8 6 3 4 6 6 7 8 6 7 9 8 7 7 8 9 10 9 7 6 6 7 7 6 7 9 10 7 4 4 7 8 7 7 8 9 10 11 13 13 12 11 10 8 8 8 9 7 7 8 9 9 9 9 7 6 7 8 9 8 8 7 7 7 6 6 8 8 8 8 8 8 8 8 9 10 10 9 9 10 9 8 7 8 10 9 7 6 4 3 5 5 6 6 6 6 5 5 nan
nan 7 8 9 8 6 4 5 6 6 7 7 5 7 8 7 6 7 8 11 13 11 7 6 6 7 8 7 6 8 9 7 6 6 8 7 7 7 8 8 8 8 9 9 10 12 13 11 9 8 8 9 8 7 6 8 9 9 7 6 7 10 11 9 7 7 6 6 6 6 6 7 7 7 7 7 7 8 9 9 10 10 10 10 9 8 9 12 13 13 13 13 11 9 9 8 7 7 7 7 6 5 nan
nan nan nan nan nan nan nan nan nan nan nan nan nan nan nan nan nan nan nan nan nan nan nan nan nan nan nan nan nan nan nan nan nan nan nan nan nan nan nan nan nan nan nan nan nan nan nan nan nan nan nan nan nan nan nan nan nan nan nan nan nan nan nan nan nan nan nan nan nan nan nan nan nan nan nan nan nan nan nan nan nan nan nan nan nan nan nan nan nan nan nan nan nan nan nan nan nan nan nan nan nan nan nan
CAPE
nan nan nan nan nan nan nan 0 2 2 4 6 7 7 7 7 7 7 8 10 10 7 4 4 4 4 3 3 1 1 0 3 nan nan nan nan nan nan nan nan nan nan nan nan nan nan nan nan nan nan nan nan nan nan nan nan nan nan nan nan nan nan nan 2 18 18 32 36 30 30 28 27 26 26 24 23 23 20 23 26 26 27 26 23 21 21 24 25 31 31 30 24 20 20 14 12 12 8 7 7 7 8 9
nan nan nan 0 0 0 1 2 2 2 2 3 5 5 6 7 7 7 8 8 8 9 8 8 8 8 2 2 2 2 2 2 nan nan nan nan nan nan nan nan nan nan nan nan nan nan nan nan nan nan nan nan nan nan nan nan nan nan nan nan nan nan nan nan 8 8 26 36 31 31 28 25 25 25 25 24 24 23 20 22 22 24 23 23 21 21 20 23 26 26 30 30 28 28 24 18 18 14 11 6 6 6 6
nan nan 1 2 3 3 3 3 3 3 2 3 3 3 4 6 6 7 8 11 11 11 9 8 7 7 5 2 1 1 1 0 nan nan nan nan nan nan nan nan nan nan nan nan nan nan nan nan nan nan nan nan nan nan nan nan nan nan nan nan nan nan nan nan 4 4 19 32 32 32 29 26 28 28 24 26 26 25 22 22 22 21 20 22 22 22 20 19 22 22 24 26 31 31 32 28 28 24 17 13 13 8 6
nan 1 3 4 4 4 4 4 4 4 6 5 7 7 5 8 8 11 13 14 14 12 9 6 5 5 4 2 0 0 0 nan nan nan nan nan nan nan nan nan nan nan nan nan nan nan nan nan nan nan nan nan nan nan nan nan nan nan nan nan nan nan nan nan 5 5 12 27 36 36 33 30 29 29 29 29 29 30 26 25 25 20 19 21 23 23 23 22 19 19 20 19 23 23 26 30 30 31 27 21 21 16 12
1 3 5 6 6 6 4 4 6 6 7 8 8 8 8 9 9 13 18 18 18 13 6 3 1 1 0 nan 0 0 nan nan nan nan nan nan nan nan nan nan nan nan nan nan nan nan nan nan nan nan nan nan nan nan nan nan nan nan nan nan nan nan nan nan 8 8 14 25 35 35 35 36 31 31 32 32 32 31 29 28 28 23 21 23 24 24 24 23 21 21 20 18 18 18 20 23 23 26 29 25 25 23 20
3 5 7 6 4 4 3 4 6 6 8 8 9 9 9 11 11 17 19 17 17 10 3 0 nan nan nan nan nan nan nan nan nan nan nan nan nan nan nan nan nan nan nan nan nan nan nan nan nan nan nan nan nan nan nan nan nan nan nan nan nan nan nan 0 13 13 21 28 34 34 35 35 32 32 33 30 30 28 28 26 26 24 24 25 25 25 26 25 23 23 21 20 18 18 17 16 16 16 23 25 25 25 26
3 5 4 3 2 2 2 2 4 4 5 5 6 6 8 11 11 18 16 12 12 7 1 nan nan nan nan nan nan nan nan nan nan nan nan nan nan nan nan nan nan nan nan nan nan nan nan nan nan nan nan nan nan nan nan nan nan nan nan nan nan nan nan 3 15 15 25 28 31 31 31 31 30 30 30 27 27 24 21 20 20 21 22 25 27 27 27 26 24 24 22 21 20 20 19 17 17 13 12 16 16 20 26
1 1 1 0 0 0 0 0 1 1 2 2 3 3 8 11 11 14 9 6 6 5 1 nan nan nan nan nan nan nan nan nan nan nan nan nan nan nan nan nan nan nan nan nan nan nan nan nan nan nan nan nan nan nan nan nan nan nan nan nan nan nan nan 5 19 19 23 26 28 28 28 26 25 25 24 22 22 18 16 15 15 17 18 22 24 24 26 26 23 23 22 20 21 21 21 19 19 18 15 12 12 16 20
0 0 nan 0 0 0 0 0 nan nan nan nan 2 2 6 12 12 10 5 4 4 3 2 nan nan nan nan nan nan nan nan nan nan nan nan nan nan nan nan nan nan nan nan nan nan nan nan nan nan nan nan nan nan nan nan nan nan nan nan nan nan nan nan 4 16 16 20 21 23 23 23 22 21 21 19 16 16 15 13 13 13 13 14 17 19 19 21 20 20 20 20 19 21 21 21 20 20 19 19 18 18 17 17
nan nan nan nan nan nan nan nan nan nan nan nan 0 0 4 10 10 6 1 1 1 2 3 2 nan nan nan nan nan nan nan nan nan nan nan nan nan nan nan nan nan nan nan nan nan nan nan nan nan nan nan nan nan nan nan nan nan nan nan nan nan nan nan 2 10 10 15 17 17 17 18 18 16 16 15 12 12 12 13 12 12 11 13 14 14 14 14 15 16 16 18 20 21 21 22 20 20 21 21 23 23 23 23
nan nan nan nan nan nan nan nan nan nan nan nan nan nan 0 2 2 2 0 0 0 2 3 3 0 0 nan nan nan nan nan nan nan nan nan nan nan nan nan nan nan nan nan nan nan nan nan nan nan nan nan nan nan nan nan nan nan nan nan nan nan nan nan 0 5 5 9 11 13 13 14 14 14 14 12 10 10 12 11 10 10 10 13 13 12 12 11 11 14 14 17 20 22 22 21 21 21 22 23 24 24 27 26
nan nan nan nan nan nan nan nan nan nan nan nan nan nan nan 0 0 0 0 0 0 1 3 3 1 1 nan nan nan nan nan nan nan nan nan nan nan nan nan nan nan nan nan nan nan nan nan nan nan nan nan nan nan nan nan nan nan nan nan nan nan nan 0 1 2 2 4 4 10 10 13 13 12 12 9 9 9 12 12 10 10 10 13 12 11 11 11 12 15 15 17 21 23 23 23 23 23 24 24 25 25 27 29
nan nan nan nan nan nan nan nan nan nan nan nan nan nan nan 0 0 0 0 0 0 1 1 1 1 1 0 nan nan nan nan nan nan nan nan nan nan nan nan nan nan nan nan nan nan nan nan nan nan nan nan nan nan nan nan nan nan nan nan nan nan nan 1 1 1 1 1 3 9 9 10 10 8 8 7 8 8 10 12 12 12 13 12 11 10 10 13 16 19 19 21 21 24 24 25 26 26 29 28 26 26 30 32
nan nan nan nan nan nan nan nan nan nan nan nan nan nan nan 0 0 1 1 1 1 1 0 1 0 0 0 nan nan nan nan nan nan nan nan nan nan nan nan nan nan nan nan nan nan nan nan nan nan nan nan nan nan nan nan nan nan nan nan nan nan nan 0 2 0 0 nan 3 6 6 8 7 5 5 5 6 6 7 7 8 8 9 10 11 12 12 15 18 22 22 26 27 26 26 27 28 28 32 31 32 32 36 39
nan nan nan nan nan nan nan nan nan nan nan nan nan nan 0 2 2 4 4 2 2 1 1 1 0 0 1 0 nan nan nan nan nan nan nan nan nan nan nan nan nan nan nan nan nan nan nan nan nan nan nan nan nan nan nan nan nan nan nan nan nan nan 1 2 0 0 nan 1 4 4 7 4 3 3 3 3 3 5 4 4 4 5 8 12 12 12 13 17 21 21 26 27 28 28 30 31 31 34 34 38 38 41 42
nan nan nan nan nan nan 0 0 nan nan nan 0 0 0 1 5 5 8 8 4 4 3 2 2 1 1 1 1 1 1 0 nan nan nan nan 0 0 1 1 1 1 nan nan nan nan nan nan nan nan nan nan nan nan nan nan nan nan nan nan nan nan nan 1 2 0 0 nan 0 1 1 2 1 1 1 1 2 2 3 3 2 2 3 6 10 13 13 10 13 14 14 19 23 24 24 26 29 29 33 38 40 40 42 44
nan nan nan 0 0 0 0 0 0 0 1 2 2 2 3 7 7 12 12 8 8 6 4 2 2 2 2 3 1 1 nan nan 0 0 0 1 1 1 3 3 3 4 nan nan nan nan nan nan nan nan nan nan nan nan nan nan nan nan nan nan nan nan 1 2 0 0 nan nan 0 0 1 0 0 0 0 1 1 2 3 2 2 2 4 7 10 10 11 11 9 9 10 11 17 17 19 19 19 25 29 35 35 37 41
1 nan 1 3 3 3 3 2 1 1 1 2 2 2 3 9 9 14 14 12 12 10 8 4 3 3 3 3 3 3 nan nan nan nan nan 1 1 0 2 3 3 nan nan nan nan nan nan nan nan nan nan nan nan nan nan nan nan nan nan nan nan nan 1 2 0 0 nan nan nan nan nan nan nan nan 0 1 1 1 2 2 2 3 4 6 7 7 7 8 6 6 5 7 9 9 13 14 14 21 23 25 25 29 31
nan 2 3 6 9 9 8 5 3 3 2 2 3 3 4 8 8 13 15 16 16 18 16 10 7 7 6 5 nan nan nan nan nan nan nan nan nan nan 1 nan nan nan nan nan nan nan nan nan nan nan nan nan nan nan nan nan nan nan nan nan nan nan 1 1 0 0 nan nan nan nan nan nan nan nan 0 1 1 1 1 1 1 3 4 5 5 5 5 7 7 7 8 9 10 10 12 14 14 17 20 21 21 23 24
nan nan 2 6 12 12 14 11 7 7 7 13 17 17 14 17 17 23 26 29 29 32 36 34 22 22 22 nan nan nan nan nan nan nan nan nan nan nan nan nan nan nan nan nan nan nan nan nan nan nan nan nan nan nan nan nan nan nan nan nan nan nan nan nan nan nan nan nan nan nan nan nan nan nan nan 0 0 nan nan 3 3 5 8 8 9 9 10 11 12 12 13 13 13 13 13 14 14 15 19 17 17 19 20
nan nan nan nan nan nan nan nan nan nan nan 13 nan nan nan 0 0 17 34 14 14 26 44 51 nan nan nan nan nan nan nan nan nan nan nan nan nan nan nan nan nan nan nan nan nan nan nan nan nan nan nan nan nan nan nan nan nan nan nan nan nan nan nan nan nan nan nan nan nan nan nan nan nan nan nan nan nan nan nan 4 4 7 8 9 11 11 12 12 13 13 12 12 13 13 12 11 11 12 14 15 15 16 18
nan nan nan nan nan nan nan nan nan nan nan 9 nan nan nan nan nan nan 6 nan nan nan nan nan nan nan nan nan nan nan nan nan nan nan nan nan nan nan nan nan nan nan nan nan nan nan nan nan nan nan nan nan nan nan nan nan nan nan nan nan nan nan nan nan nan nan nan nan nan nan nan nan nan nan 0 nan nan 0 1 4 4 5 7 9 10 10 11 12 11 11 10 9 10 10 10 9 9 10 10 11 11 13 16
nan nan nan nan nan nan nan nan nan nan nan nan nan nan nan nan nan nan nan nan nan nan nan nan nan nan nan nan nan nan nan nan nan nan nan nan nan nan nan nan nan nan nan nan nan nan nan nan nan nan nan nan nan nan nan nan nan nan nan nan nan nan nan nan nan nan nan nan nan nan nan nan nan nan nan nan nan 0 1 4 4 5 8 8 10 10 10 9 7 7 6 6 6 6 7 8 8 9 8 10 10 12 11
nan nan nan nan nan nan nan nan nan nan nan nan nan nan nan nan nan nan nan nan nan nan nan nan nan nan nan nan nan nan nan nan nan nan nan nan nan nan nan nan nan nan nan nan nan nan nan nan nan nan nan nan nan nan nan nan nan nan nan nan nan nan nan nan nan nan nan nan nan nan nan nan nan nan nan nan nan 0 3 4 4 5 7 8 10 10 9 5 4 4 3 3 5 5 6 7 7 8 9 9 9 11 10
nan nan nan nan nan nan nan nan nan nan nan nan nan nan nan nan nan nan nan nan nan nan nan nan nan nan nan nan nan nan nan nan nan nan nan nan nan nan nan nan nan nan nan nan nan nan nan nan nan nan nan nan nan nan nan nan nan nan nan nan nan nan nan nan nan nan nan nan nan nan nan nan nan nan 0 nan nan 0 2 4 4 4 5 7 8 8 6 3 2 2 3 2 3 3 4 5 5 6 8 9 9 9 11
nan nan nan nan nan nan nan nan nan nan nan nan nan nan nan nan nan nan nan nan nan nan nan nan nan nan nan nan nan nan nan nan nan nan nan nan nan nan nan nan nan nan nan nan nan nan nan nan nan nan nan nan nan nan nan nan nan nan nan nan nan nan nan nan nan nan nan nan nan nan nan nan 0 0 nan 0 0 nan 0 2 2 3 3 4 7 7 5 2 2 2 3 3 3 3 3 4 4 6 7 8 8 9 9
nan nan nan nan nan nan nan nan nan nan nan nan nan nan nan nan nan nan nan nan nan nan nan nan nan nan nan nan nan nan nan nan nan nan nan nan nan nan nan nan nan nan nan nan nan nan nan nan nan nan nan nan nan nan nan nan nan nan nan nan nan nan nan nan nan nan nan nan nan nan nan nan 0 0 nan 0 0 nan nan nan nan 1 2 3 5 5 4 2 2 2 3 2 2 2 3 5 5 6 7 8 8 8 8
nan nan nan nan nan nan nan nan nan nan nan nan nan nan nan nan nan nan nan nan nan nan nan nan nan nan nan nan nan nan nan nan nan nan nan nan nan nan nan nan nan nan nan nan nan nan nan nan nan nan nan nan nan nan nan nan nan nan nan nan nan nan nan nan nan nan nan nan nan nan nan nan 0 0 nan nan nan nan nan nan nan 1 2 3 3 3 2 1 1 1 2 1 1 1 2 4 4 5 6 7 7 8 9
nan nan nan nan nan nan nan nan nan nan nan nan nan nan nan nan nan nan nan nan nan nan nan nan nan nan nan nan nan nan nan nan nan nan nan nan nan nan nan nan nan nan nan nan nan nan nan nan nan nan nan nan nan nan nan nan nan nan nan nan nan nan nan nan nan nan nan nan nan nan nan nan nan nan nan nan nan nan nan nan nan 0 2 2 2 2 1 0 0 0 0 0 0 0 0 1 1 3 4 5 5 7 8
nan nan nan nan nan nan nan nan nan nan nan nan nan nan nan nan nan nan nan nan nan nan nan nan nan nan nan nan nan nan nan nan nan nan nan nan nan nan nan nan nan nan nan nan nan nan nan nan nan nan nan nan nan nan nan nan nan nan nan nan nan nan nan nan nan nan nan nan nan nan nan nan nan nan nan nan nan nan nan nan nan nan 1 1 0 0 0 0 0 0 nan nan nan nan nan 0 0 1 3 4 4 5 6
nan nan nan nan nan nan nan nan nan nan nan nan nan nan nan nan nan nan nan nan nan nan nan nan nan nan nan nan nan nan nan nan nan nan nan nan nan nan nan nan nan nan nan nan nan nan nan nan nan nan nan nan nan nan nan nan nan nan nan nan nan nan nan nan nan nan nan nan nan nan nan nan nan nan nan nan nan nan nan nan nan nan 0 0 nan nan nan nan nan nan nan nan nan nan nan 0 0 1 3 3 3 4 5
nan nan nan nan nan nan nan nan nan nan nan nan nan nan nan nan nan nan nan nan nan nan nan nan nan nan nan nan nan nan nan nan nan nan nan nan nan nan nan nan nan nan nan nan nan nan nan nan nan nan nan nan nan nan nan nan nan nan nan nan nan nan nan nan nan nan nan nan nan nan nan nan nan nan nan nan nan nan nan nan nan nan nan nan nan nan nan nan nan nan nan nan nan nan 0 1 1 2 3 4 4 5 6
nan nan nan nan nan nan nan nan nan nan nan nan nan nan nan nan nan nan nan nan nan nan nan nan nan nan nan nan nan nan nan nan nan nan nan nan nan nan nan nan nan nan nan nan nan nan nan nan nan nan nan nan nan nan nan nan nan nan nan nan nan nan nan nan nan nan nan nan nan nan nan nan nan nan nan nan nan nan nan nan nan nan nan nan nan nan nan nan nan nan nan 0 1 1 1 2 2 3 5 6 6 7 7
nan nan nan nan nan nan nan nan nan nan nan nan nan nan nan nan nan nan nan nan nan nan nan nan nan nan nan nan nan nan nan nan nan nan nan nan nan nan nan nan nan nan nan nan nan nan nan nan nan nan nan nan nan nan nan nan nan nan nan nan nan nan nan nan nan nan nan nan nan nan nan nan nan nan nan nan nan nan nan nan nan nan nan nan nan nan nan 0 0 0 1 2 3 3 3 4 4 5 7 8 8 8 9
nan nan nan nan nan nan nan nan nan nan nan nan nan nan nan nan nan nan nan nan nan nan nan nan nan nan nan nan nan nan nan nan nan nan nan nan nan nan nan nan nan nan nan nan nan nan nan nan nan nan nan nan nan nan nan nan nan nan nan nan nan nan nan nan nan nan nan nan nan nan nan nan nan nan nan nan nan nan nan nan nan nan nan 0 0 0 0 1 1 1 3 6 6 6 7 8 8 8 9 9 9 9 9
nan nan nan nan nan nan nan nan nan nan nan nan nan nan nan nan nan nan nan nan nan nan nan nan nan nan nan nan nan nan nan nan nan nan nan nan nan nan nan nan nan nan nan nan nan nan nan nan nan nan nan nan nan nan nan nan nan nan nan nan nan nan nan nan nan nan nan nan nan nan nan nan nan nan nan nan nan nan nan nan nan nan nan 0 1 1 1 2 4 4 7 9 9 9 10 10 10 10 10 9 9 9 10
nan nan nan nan nan nan nan nan nan nan nan nan nan nan nan nan nan nan nan nan nan nan nan nan nan nan nan nan nan nan nan nan nan nan nan nan nan nan nan nan nan nan nan nan nan nan nan nan nan nan nan nan nan nan nan nan nan nan nan nan nan nan nan nan nan nan nan nan nan nan nan nan nan nan nan nan nan nan nan nan nan nan nan 0 1 1 2 4 7 7 9 10 12 12 12 11 11 11 11 11 11 12 11
nan nan nan nan nan nan nan nan nan nan nan nan nan nan nan nan nan nan nan nan nan nan nan nan nan nan nan nan nan nan nan nan nan nan nan nan nan nan nan nan nan nan nan nan nan nan nan nan nan nan nan nan nan nan nan nan nan nan nan nan nan nan nan nan nan nan nan nan nan nan nan nan nan nan nan nan nan nan nan nan nan nan nan nan 0 0 1 4 6 6 8 9 9 9 10 11 11 11 13 14 14 14 15
nan nan nan nan nan nan nan nan nan nan nan nan nan nan nan nan nan nan nan nan nan nan nan nan nan nan nan nan nan nan nan nan nan nan nan nan nan nan nan nan nan nan nan nan nan nan nan nan nan nan nan nan nan nan nan nan nan nan nan nan nan nan nan nan nan nan nan nan nan nan nan nan nan nan nan nan nan nan nan nan nan nan nan nan nan nan 0 2 4 4 6 7 7 7 8 10 10 13 14 14 14 17 18
nan nan nan nan nan nan nan nan nan nan nan nan nan nan nan nan nan nan nan nan nan nan nan nan nan nan nan nan nan nan nan nan nan nan nan nan nan nan nan nan nan nan nan nan nan nan nan nan nan nan nan nan nan nan nan nan nan nan nan nan nan nan nan nan nan nan nan nan nan nan nan nan nan nan nan nan nan nan nan nan nan nan nan nan nan nan nan 0 2 2 3 4 5 5 7 9 9 12 15 16 16 19 19
nan nan nan nan nan nan nan nan nan nan nan nan nan nan nan nan nan nan nan nan nan nan nan nan nan nan nan nan nan nan nan nan nan nan nan nan nan nan nan nan nan nan nan nan nan nan nan nan nan nan nan nan nan nan nan nan nan nan nan nan nan nan nan nan nan nan nan nan nan nan nan nan nan nan nan nan nan nan nan nan nan nan nan nan nan nan nan nan 0 0 1 2 3 3 6 8 8 12 17 19 19 20 20
nan nan nan nan nan nan nan nan nan nan nan nan nan nan nan nan nan nan nan nan nan nan nan nan nan nan nan nan nan nan nan nan nan nan nan nan nan nan nan nan nan nan nan nan nan nan nan nan nan nan nan nan nan nan nan nan nan nan nan nan nan nan nan nan nan nan nan nan nan nan nan nan nan nan nan nan nan nan nan nan nan nan nan nan nan nan nan nan nan nan 0 1 2 2 4 8 8 13 18 20 20 21 21
nan nan nan nan nan nan nan nan nan nan nan nan nan nan nan nan nan nan nan nan nan nan nan nan nan nan nan nan nan nan nan nan nan nan nan nan nan nan nan nan nan nan nan nan nan nan nan nan nan nan nan nan nan nan nan nan nan nan nan nan nan nan nan nan nan nan nan nan nan nan nan nan nan nan nan nan nan nan nan nan nan nan nan nan nan nan nan nan nan nan nan nan nan nan 3 7 7 12 16 17 17 19 21
nan nan nan nan nan nan nan nan nan nan nan nan nan nan nan nan nan nan nan nan nan nan nan nan nan nan nan nan nan nan nan nan nan nan nan nan nan nan nan nan nan nan nan nan nan nan nan nan nan nan nan nan nan nan nan nan nan nan nan nan nan nan nan nan nan nan nan nan nan nan nan nan nan nan nan nan nan nan nan nan nan nan nan nan nan nan nan nan nan nan nan nan nan nan 1 5 5 9 12 14 14 16 18
nan nan nan nan nan nan nan nan nan nan nan nan nan nan nan nan nan nan nan nan nan nan nan nan nan nan nan nan nan nan nan nan nan nan nan nan nan nan nan nan nan nan nan nan nan nan nan nan nan nan nan nan nan nan nan nan nan nan nan nan nan nan nan nan nan nan nan nan nan nan nan nan nan nan nan nan nan nan nan nan nan nan nan nan nan nan nan nan nan nan nan nan nan nan 0 3 3 5 8 10 10 13 16
nan nan nan nan nan nan nan nan nan nan nan nan nan nan nan nan nan nan nan nan nan nan nan nan nan nan nan nan nan nan nan nan nan nan nan nan nan nan nan nan nan nan nan nan nan nan nan nan nan nan nan nan nan nan nan nan nan nan nan nan nan nan nan nan nan nan nan nan nan nan nan nan nan nan nan nan nan nan nan nan nan nan nan nan nan nan nan nan nan nan nan nan nan nan nan 0 0 2 5 8 8 11 15
nan nan nan nan nan nan nan nan nan nan nan nan nan nan nan nan nan nan nan nan nan nan nan nan nan nan nan nan nan nan nan nan nan nan nan nan nan nan nan nan nan nan nan nan nan nan nan nan nan nan nan nan nan nan nan nan nan nan nan nan nan nan nan nan nan nan nan nan nan nan nan nan nan nan nan nan nan nan nan nan nan nan nan nan nan nan nan nan nan nan nan nan nan nan nan nan nan nan 2 6 6 10 15
nan nan nan nan nan nan nan nan nan nan nan nan nan nan nan nan nan nan nan nan nan nan nan nan nan nan nan nan nan nan nan nan nan nan nan nan nan nan nan nan nan nan nan nan nan nan nan nan nan nan nan nan nan nan nan nan nan nan nan nan nan nan nan nan nan nan nan nan nan nan nan nan nan nan nan nan nan nan nan nan nan nan nan nan nan nan nan nan nan nan nan nan nan nan nan nan nan nan nan 3 3 9 15
nan nan nan nan nan nan nan nan nan nan nan nan nan nan nan nan nan nan nan nan nan nan nan nan nan nan nan nan nan nan nan nan nan nan nan nan nan nan nan nan nan nan nan nan nan nan nan nan nan nan nan nan nan nan nan nan nan nan nan nan nan nan nan nan nan nan nan nan nan nan nan nan nan nan nan nan nan nan nan nan nan nan nan nan nan nan nan nan nan nan nan nan nan nan nan nan nan nan nan 1 1 7 16
nan nan nan nan nan nan nan nan nan nan nan nan nan nan nan nan nan nan nan nan nan nan nan nan nan nan nan nan nan nan nan nan nan nan nan nan nan nan nan nan nan nan nan nan nan nan nan nan nan nan nan nan nan nan nan nan nan nan nan nan nan nan nan nan nan nan nan nan nan nan nan nan nan nan nan nan nan nan nan nan nan nan nan nan nan nan nan nan nan nan nan nan nan nan nan nan nan nan nan 0 0 6 18
nan nan nan nan nan nan nan nan nan nan nan nan nan nan nan nan nan nan nan nan nan nan nan nan nan nan nan nan nan nan nan nan nan nan nan nan nan nan nan nan nan nan nan nan nan nan nan nan nan nan nan nan nan nan nan nan nan nan nan nan nan nan nan nan nan nan nan nan nan nan nan nan nan nan nan nan nan nan nan nan nan nan nan nan nan nan nan nan nan nan nan nan nan nan nan nan nan nan nan nan nan 6 19
nan nan nan nan nan nan nan nan nan nan nan nan nan nan nan nan nan nan nan nan nan nan nan nan nan nan nan nan nan nan nan nan nan nan nan nan nan nan nan nan nan nan nan nan nan nan nan nan nan nan nan nan nan nan nan nan nan nan nan nan nan nan nan nan nan nan nan nan nan nan nan nan nan nan nan nan nan nan nan nan nan nan nan nan nan nan nan nan nan nan nan nan nan nan nan nan nan nan nan nan nan 7 19
nan nan nan nan nan nan nan nan nan nan nan nan nan nan nan nan nan nan nan nan nan nan nan nan nan nan nan nan nan nan nan nan nan nan nan nan nan nan nan nan nan nan nan nan nan nan nan nan nan nan nan nan nan nan nan nan nan nan nan nan nan nan nan nan nan nan nan nan nan nan nan nan nan nan nan nan nan nan nan nan nan nan nan nan nan nan nan nan nan nan nan nan nan nan nan nan nan nan nan nan nan 8 18
nan nan nan nan nan nan nan nan nan nan nan nan nan nan nan nan nan nan nan nan nan nan nan nan nan nan nan nan nan nan nan nan nan nan nan nan nan nan nan nan nan nan nan nan nan nan nan nan nan nan nan nan nan nan nan nan nan nan nan nan nan nan nan nan nan nan nan nan nan nan nan nan nan nan nan nan nan nan nan nan nan nan nan nan nan nan nan nan nan nan nan nan nan nan nan nan nan nan nan nan nan 6 16
nan nan nan nan nan nan nan nan nan nan nan nan nan nan nan nan nan nan nan nan nan nan nan nan nan nan nan nan nan nan nan nan nan nan nan nan nan nan nan nan nan nan nan nan nan nan nan nan nan nan nan nan nan nan nan nan nan nan nan nan nan nan nan nan nan nan nan nan nan nan nan nan nan nan nan nan nan nan nan nan nan nan nan nan nan nan nan nan nan nan nan nan nan nan nan nan nan nan nan nan nan 5 13
nan nan nan nan nan nan nan nan nan nan nan nan nan nan nan nan nan nan nan nan nan nan nan nan nan nan nan nan nan nan nan nan nan nan nan nan nan nan nan nan nan nan nan nan nan nan nan nan nan nan nan nan nan nan nan nan nan nan nan nan nan nan nan nan nan nan nan nan nan nan nan nan nan nan nan nan nan nan nan nan nan nan nan nan nan nan nan nan nan nan nan nan nan nan nan nan nan nan nan nan nan 4 11
nan nan nan nan nan nan nan nan nan nan nan nan nan nan nan nan nan nan nan nan nan nan nan nan nan nan nan nan nan nan nan nan nan nan nan nan nan nan nan nan nan nan nan nan nan nan nan nan nan nan nan nan nan nan nan nan nan nan nan nan nan nan nan nan nan nan nan nan nan nan nan nan nan nan nan nan nan nan nan nan nan nan nan nan nan nan nan nan nan nan nan nan nan nan nan nan nan nan nan nan nan 4 10
nan nan nan nan nan nan nan nan nan nan nan nan nan nan nan nan nan nan nan nan nan nan nan nan nan nan nan nan nan nan nan nan nan nan nan nan nan nan nan nan nan nan nan nan nan nan nan nan nan nan nan nan nan nan nan nan nan nan nan nan nan nan nan nan nan nan nan nan nan nan nan nan nan nan nan nan nan nan nan nan nan nan nan nan nan nan nan nan nan nan nan nan nan nan nan nan nan nan nan nan nan 4 10
nan nan nan nan nan nan nan nan nan nan nan nan nan nan nan nan nan nan nan nan nan nan nan nan nan nan nan nan nan nan nan nan nan nan nan nan nan nan nan nan nan nan nan nan nan nan nan nan nan nan nan nan nan nan nan nan nan nan nan nan nan nan nan nan nan nan nan nan nan nan nan nan nan nan nan nan nan nan nan nan nan nan nan nan nan nan nan nan nan nan nan nan nan nan nan nan nan nan nan nan nan 4 10
nan nan nan nan nan nan nan nan nan nan nan nan nan nan nan nan nan nan nan nan nan nan nan nan nan nan nan nan nan nan nan nan nan nan nan nan nan nan nan nan nan nan nan nan nan nan nan nan nan nan nan nan nan nan nan nan nan nan nan nan nan nan nan nan nan nan nan nan nan nan nan nan nan nan nan nan nan nan nan nan nan nan nan nan nan nan nan nan nan nan nan nan nan nan nan nan nan nan nan 0 0 4 10
nan nan nan nan nan nan nan nan nan nan nan nan nan nan nan nan nan nan nan nan nan nan nan nan nan nan nan nan nan nan nan nan nan nan nan nan nan nan nan nan nan nan nan nan nan nan nan nan nan nan nan nan nan nan nan nan nan nan nan nan nan nan nan nan nan nan nan nan nan nan nan nan nan nan nan nan nan nan nan nan nan nan nan nan nan nan nan nan nan nan nan nan nan nan nan nan nan nan nan nan nan 3 11